Flag for Argentina Weather past 2 weeks in Comodoro Rivadavia, Chubut, Argentina

Now
54 °F

Light rain. Overcast.


Feels Like: 51 °F
Forecast: 56 / 62 °F
Wind: 8 mph from Northwest

Location: Comodoro Rivadavia Aerodrome

Current Time: Apr 18, 2015 at 2:12:10 AM

Latest Report: Apr 18, 2015 at 1:00 AM


Visibility: N/A

Pressure: 29.65 "Hg

Humidity: 82%

Dew point: 48 °F

Location of Comodoro RivadaviaLocation

Historic Weather in Comodoro Rivadavia — Graph

°F

Comodoro Rivadavia temperature yesterday

Maximum temperature yesterday: 70 °F (at 4:00 PM)
Minimum temperature yesterday: 48 °F (at 4:00 AM)
Average temperature yesterday: 57 °F

Past Weeks' High & Low Weather Summary

 TemperatureHumidityPressure
High79 °F (Apr 12, 12:00 PM)100% (Apr 7, 7:00 PM)30.36 "Hg (Apr 7, 7:00 PM)
Low37 °F (Apr 5, 2:00 AM)24% (Apr 13, 10:00 AM)29.50 "Hg (Apr 3, 1:00 AM)
Average55 °F63%29.95 "Hg
* Reported Apr 3 1:00 AM — Apr 18 1:00 AM, Comodoro Rivadavia, Weather by CustomWeather, © 2015

Note: Actual official high and low records may vary slightly from our data, if they occured in-between our weather recording intervals... More about our weather records

Advertising

Comodoro Rivadavia weather history for previous 24 hours

 ConditionsComfort  
Time TempWeatherWind HumidityBarometerVisibility
1:00 AM
Sat, Apr 18
54 °FLight rain. Overcast.8 mph82%29.65 "HgN/A
12:00 AM57 °FLight rain. Passing clouds.15 mph63%29.68 "HgN/A
11:00 PM
Fri, Apr 17
57 °FClear.15 mph77%29.71 "HgN/A
10:00 PM59 °FLight rain. Passing clouds.9 mph63%29.71 "HgN/A
9:00 PM59 °FLight rain. Overcast.17 mph63%29.71 "HgN/A
7:00 PM63 °FClear.13 mph49%29.71 "Hg10 mi
6:00 PM66 °FClear.13 mph46%29.71 "Hg10 mi
5:00 PM68 °FSunny.22 mph38%29.71 "Hg10 mi
4:00 PM70 °FSunny.14 mph43%29.74 "Hg10 mi
3:00 PM64 °FSunny.16 mph46%29.77 "Hg10 mi
2:00 PM64 °FSunny.21 mph46%29.77 "Hg10 mi
1:00 PM64 °FSunny.13 mph49%29.80 "Hg10 mi
12:00 PM61 °FSunny.12 mph52%29.83 "Hg10 mi
11:00 AM57 °FSunny.15 mph51%29.86 "Hg10 mi
10:00 AM55 °FSunny.16 mph55%29.86 "Hg10 mi
9:00 AM52 °FSunny.17 mph54%29.86 "Hg10 mi
8:00 AM48 °FSunny.18 mph58%29.86 "Hg10 mi
7:00 AM48 °FClear.17 mph58%29.89 "Hg10 mi
6:00 AM48 °FClear.18 mph62%29.86 "Hg10 mi
5:00 AM48 °FClear.15 mph62%29.89 "Hg10 mi
4:00 AM48 °FClear.17 mph62%29.89 "Hg10 mi
3:00 AM50 °FClear.15 mph62%29.92 "Hg10 mi
2:00 AM52 °FClear.5 mph62%29.92 "Hg10 mi
Weather by CustomWeather, © 2015

See weather overviewHow to use our weather pages